"Series Description","Memorandum Items: Custody Holdings: Securities in custody for foreign and international accounts: Wednesday level","Memorandum Items: Custody Holdings: Marketable U.S. Treasury securities: Wednesday level","Memorandum Items: Custody Holdings: Federal agency debt and mortgage-backed securities: Wednesday level","Assets: Securities Held Outright: Mortgage-backed securities: Wednesday level"
"Unit:","Currency","Currency","Currency","Currency"
"Multiplier:","1000000","1000000","1000000","1000000"
"Currency:","USD","USD","USD","USD"
"Unique Identifier: ","H41/H41/RESH4F_N.WW","H41/H41/RESH4FG_N.WW","H41/H41/RESH4FA_N.WW","H41/H41/RESPPALGASMO_N.WW"
"Time Period","RESH4F_N.WW","RESH4FG_N.WW","RESH4FA_N.WW","RESPPALGASMO_N.WW"
2007-06-20,0,0,0,0
2007-06-27,0,0,0,0
2007-07-04,1911553,1209781,690944,0
2007-07-11,1927897,1222406,695268,0
2007-07-18,1931851,1228010,694008,0
2007-07-25,1940409,1222950,707367,0
2007-08-01,1939125,1224153,704611,0
2007-08-08,1936780,1217707,708542,0
2007-08-15,1918114,1193747,712667,0
2007-08-22,1910038,1181537,715975,0
2007-08-29,1910654,1177227,721304,0
2007-09-05,1906342,1177006,716412,0
2007-09-12,1904167,1171809,720027,0
2007-09-19,1917792,1181881,723736,0
2007-09-26,1920465,1180487,727327,0
2007-10-03,1921634,1183313,726379,0
2007-10-10,1935020,1194555,728527,0
2007-10-17,1946125,1204205,730258,0
2007-10-24,1952231,1195979,744067,0
2007-10-31,1945457,1194773,738849,0
2007-11-07,1948655,1202889,733675,0
2007-11-14,1953934,1204963,737033,0
2007-11-21,1944296,1189752,744622,0
2007-11-28,1950316,1191459,749111,0
2007-12-05,1947917,1190701,747500,0
2007-12-12,1956379,1189535,756556,0
2007-12-19,1962740,1187578,764105,0
2007-12-26,1972048,1192419,768571,0
2008-01-02,1972954,1194592,767355,0
2008-01-09,1970920,1197559,762154,0
2008-01-16,1990425,1206663,772483,0
2008-01-23,2014591,1214759,788347,0
2008-01-30,2029087,1225694,789165,0
2008-02-06,2025683,1232804,778765,0
2008-02-13,2032938,1234342,784708,0
2008-02-20,2043568,1229940,799706,0
2008-02-27,2051317,1235921,800517,0
2008-03-05,2050228,1238047,797726,0
2008-03-12,2068711,1244856,808903,0
2008-03-19,2078650,1241731,821819,0
2008-03-26,2095600,1253033,827296,0
2008-04-02,2117042,1270988,831222,0
2008-04-09,2127575,1284076,828879,0
2008-04-16,2147611,1290933,842186,0
2008-04-23,2150002,1290611,844836,0
2008-04-30,2174179,1308505,851068,0
2008-05-07,2167010,1305862,847110,0
2008-05-14,2177820,1316330,847927,0
2008-05-21,2174051,1306180,854145,0
2008-05-28,2181493,1305851,861766,0
2008-06-04,2186325,1310468,862707,0
2008-06-11,2195154,1315835,865578,0
2008-06-18,2204054,1320246,869860,0
2008-06-25,2215172,1322819,878310,0
2008-07-02,2229301,1339221,876112,0
2008-07-09,2230784,1331752,885140,0
2008-07-16,2228049,1323420,890748,0
2008-07-23,2240115,1337859,888465,0
2008-07-30,2251863,1353559,884529,0
2008-08-06,2277802,1380464,883540,0
2008-08-13,2271192,1378730,878125,0
2008-08-20,2271264,1383004,873529,0
2008-08-27,2283683,1400510,868314,0
2008-09-03,2272485,1398827,858576,0
2008-09-10,2269336,1397591,856573,0
2008-09-17,2283940,1409018,859880,0
2008-09-24,2287589,1407462,865135,0
2008-10-01,2325939,1444065,866507,0
2008-10-08,2321429,1464240,842074,0
2008-10-15,2313442,1475731,822401,0
2008-10-22,2331474,1500176,813974,0
2008-10-29,2331625,1509439,804361,0
2008-11-05,2341233,1526819,797117,0
2008-11-12,2344081,1535144,792041,0
2008-11-19,2337115,1540979,778907,0
2008-11-26,2331387,1549940,763767,0
2008-12-03,2340012,1565064,758490,0
2008-12-10,2337148,1580291,740613,0
2008-12-17,2342886,1601761,724324,0
2008-12-24,2337905,1610717,709636,0
2008-12-31,2345179,1623461,704141,0
2009-01-07,2345807,1623230,704795,0
2009-01-14,2361458,1643493,700148,5634
2009-01-21,2374746,1663309,693294,5991
2009-01-28,2382628,1661341,702961,7377
2009-02-04,2383280,1667788,696949,7377
2009-02-11,2395228,1673967,702399,7377
2009-02-18,2404349,1693729,692019,65292
2009-02-25,2409227,1702169,688874,68745
2009-03-04,2424238,1714427,692144,68902
2009-03-11,2414669,1708325,687948,68958
2009-03-18,2420322,1718585,683901,236489
2009-03-25,2415756,1722183,675456,236156
2009-04-01,2434527,1740177,674819,236637
2009-04-08,2445346,1751991,673772,236651
2009-04-15,2459496,1775135,664748,355637
2009-04-22,2465220,1776559,667260,367590
2009-04-29,2459842,1772767,666071,366153
2009-05-06,2475223,1787835,666989,365820
2009-05-13,2503733,1811449,671915,431545
2009-05-20,2522186,1836228,665593,431480
2009-05-27,2524514,1846069,658392,427552
2009-06-03,2534241,1860345,654732,427633
2009-06-10,2545171,1871109,654996,427416
2009-06-17,2543067,1878633,645414,455964
2009-06-24,2540809,1878767,642766,467226
2009-07-01,2563071,1907213,637599,462444
2009-07-08,2564568,1910778,635598,462453
2009-07-15,2571769,1931514,622213,526418
2009-07-22,2570148,1934247,617914,545466
2009-07-29,2570993,1939434,612962,542888
2009-08-05,2588725,1964070,606504,542885
2009-08-12,2584972,1962635,604646,542885
2009-08-19,2588010,1967095,603028,609531
2009-08-26,2592177,1979643,595018,622864
2009-09-02,2596844,1987061,592905,625253
2009-09-09,2594757,1986887,590243,625278
2009-09-16,2618214,2015220,582283,685056
2009-09-23,2618459,2017913,579604,693595
2009-09-30,2618563,2028239,569603,692365
2009-10-07,2623739,2033656,570114,692291
2009-10-14,2632713,2042022,571063,762990
2009-10-21,2654422,2069014,566553,776868
2009-10-28,2655801,2076854,560287,774066
2009-11-04,2678495,2098755,561093,774394
2009-11-11,2677455,2097345,561601,775573
2009-11-18,2691612,2110407,562500,847042
2009-11-25,2679176,2101514,558487,852124
2009-12-02,2699089,2117642,562445,852172
2009-12-09,2700245,2118272,563179,854313
2009-12-16,2712081,2132927,560890,901231
2009-12-23,2702190,2128435,555609,910433
2009-12-30,2694214,2123192,553106,908257
2010-01-06,2690843,2123834,549568,908737
2010-01-13,2690236,2121601,551074,968590
2010-01-20,2687867,2124590,544535,970901
2010-01-27,2687735,2125972,542927,969728
2010-02-03,2690977,2134241,538153,970327
2010-02-10,2699938,2140376,540454,976865
2010-02-17,2697089,2140123,537818,1025541
2010-02-24,2701281,2144997,537134,1032560
2010-03-03,2709242,2154419,536231,1026828
2010-03-10,2713965,2157100,538291,1029172
2010-03-17,2734622,2184888,531239,1066440
2010-03-24,2739601,2190434,530252,1073800
2010-03-31,2745293,2191058,534970,1068697
2010-04-07,2752903,2200263,533423,1068736
2010-04-14,2761756,2203971,539220,1101874
2010-04-21,2773890,2219037,535803,1101929
2010-04-28,2781239,2227099,534344,1096416
2010-05-05,2792398,2235587,537514,1097415
2010-05-12,2767962,2214223,534218,1098355
2010-05-19,2769490,2211501,538506,1119485
2010-05-26,2776992,2217388,539058,1112910
2010-06-02,2786239,2222873,541512,1113614
2010-06-09,2772989,2206337,543447,1113675
2010-06-16,2787704,2215695,547339,1127597
2010-06-23,2792677,2208712,558455,1128661
2010-06-30,2789360,2216189,546548,1118127
2010-07-07,2792537,2221252,545270,1118290
2010-07-14,2808133,2227951,553624,1128560
2010-07-21,2827519,2251550,549066,1124590
2010-07-28,2836943,2263348,546499,1117474
2010-08-04,2841092,2269534,544541,1117734
2010-08-11,2864353,2288487,547633,1119459
2010-08-18,2877656,2310183,538369,1113017
2010-08-25,2880788,2323758,527431,1103167
2010-09-01,2912472,2354007,528362,1103168
2010-09-08,2901447,2350003,520831,1103168
2010-09-15,2898683,2388529,479651,1092234
2010-09-22,2930101,2424154,474792,1091873
2010-09-29,2930202,2422736,475797,1078539
2010-10-06,2948551,2441784,475014,1078539
2010-10-13,2978128,2475649,470621,1078539
2010-10-20,2993646,2497370,463961,1065751
2010-10-27,3011667,2519157,459369,1051037
2010-11-03,3036940,2541255,462773,1051037
2010-11-10,3047976,2554409,460291,1051037
2010-11-17,3055342,2565027,456980,1038278
2010-11-24,3046184,2552465,459708,1037803
2010-12-01,3053565,2563025,457338,1022653
2010-12-08,3051420,2563015,454528,1022653
2010-12-15,3048689,2566299,449005,1008845
2010-12-22,3064460,2579099,451817,1008400
2010-12-29,3047543,2563873,450116,992141
2011-01-05,3052134,2568223,450486,992141
2011-01-12,3047111,2563702,450225,992141
2011-01-19,3045181,2555038,456821,980157
2011-01-26,3047140,2557091,456559,965077
2011-02-02,3048704,2554915,459373,965077
2011-02-09,3059371,2568229,456723,965077
2011-02-16,3079719,2580348,464917,958444
2011-02-23,3075188,2575834,464593,958201
2011-03-02,3070486,2574096,462177,948932
2011-03-09,3082960,2588446,460368,948932
2011-03-16,3085555,2591651,460239,944103
2011-03-23,3085207,2592762,458925,943848
2011-03-30,3076415,2580973,462473,937155
2011-04-06,3086832,2595328,458559,937155
2011-04-13,3093177,2602584,457027,937155
2011-04-20,3101973,2613123,455322,933222
2011-04-27,3123340,2635268,454504,927021
2011-05-04,3132898,2643885,455825,927021
2011-05-11,3138232,2650873,454207,927021
2011-05-18,3134543,2653612,448397,923579
2011-05-25,3115661,2638259,444641,917856
2011-06-01,3119477,2642543,444497,917856
2011-06-08,3126776,2651332,443825,917856
2011-06-15,3133159,2663095,438639,914506
2011-06-22,3132750,2660552,440723,914326
2011-06-29,3114218,2643279,439431,908853
2011-07-06,3125740,2656642,438059,908853
2011-07-13,3120567,2654102,435185,908853
2011-07-20,3127985,2665353,430758,904182
2011-07-27,3121208,2660386,428651,897285
2011-08-03,3140736,2675692,432815,897285
2011-08-10,3116659,2653296,430783,897285
2011-08-17,3124638,2664794,427374,892569
2011-08-24,3119686,2657879,428944,892350
2011-08-31,3115511,2656415,425479,884945
2011-09-07,3106613,2647946,425049,884945
2011-09-14,3103401,2644507,426194,884945
2011-09-21,3097316,2640327,424673,879240
2011-09-28,3070733,2623648,415280,870883
2011-10-05,3066783,2623436,411780,870883
2011-10-12,3060163,2615372,413137,870883
2011-10-19,3061247,2618879,410170,862075
2011-10-26,3038758,2599140,406726,849261
2011-11-02,3046858,2606534,407061,849261
2011-11-09,3083476,2641630,408319,849261
2011-11-16,3098903,2664630,401376,841983
2011-11-23,3090682,2656527,401300,841600
2011-11-30,3097524,2666608,397587,827052
2011-12-07,3092070,2660875,397276,827052
2011-12-14,3078136,2642911,400724,858078
2011-12-21,3064742,2623528,406385,851726
2011-12-28,3040893,2601867,404222,837295
2012-01-04,3032365,2593837,403729,837739
2012-01-11,3023549,2589573,399248,840274
2012-01-18,3028153,2596697,396624,847434
2012-01-25,3032946,2601010,395686,835624
2012-02-01,3044395,2610942,397128,836012
2012-02-08,3063476,2630255,396851,836030
2012-02-15,3079215,2644634,396800,847806
2012-02-22,3082522,2643811,400857,853045
2012-02-29,3082064,2642544,401660,840795
2012-03-07,3084169,2646323,400070,840796
2012-03-14,3084948,2647019,400008,853885
2012-03-21,3090175,2658564,393354,851260
2012-03-28,3096540,2668773,389188,836786
2012-04-04,3109824,2685131,387866,836793
2012-04-11,3100421,2679385,384129,836793
2012-04-18,3094934,2683893,373947,855361
2012-04-25,3097586,2691172,368982,847796
2012-05-02,3107424,2703332,366829,847820
2012-05-09,3103052,2699622,366314,847826
2012-05-16,3102980,2705710,360016,858229
2012-05-23,3116638,2707268,371964,864985
2012-05-30,3114604,2707401,369414,851750
2012-06-06,3127350,2721735,367750,851759
2012-06-13,3115086,2715740,361660,867934
2012-06-20,3118731,2737576,343712,868038
2012-06-27,3114281,2736028,340856,854979
2012-07-04,3115393,2737636,340199,855030
2012-07-11,3112051,2734070,340399,855054
2012-07-18,3118912,2746664,334890,863015
2012-07-25,3126472,2755366,333196,853362
2012-08-01,3129926,2760738,331125,853478
2012-08-08,3135913,2765862,331917,853493
2012-08-15,3149755,2780752,330614,854155
2012-08-22,3158278,2785112,334792,859310
2012-08-29,3159039,2785428,334830,843597
2012-09-05,3167823,2795021,334251,843710
2012-09-12,3169578,2796983,334202,843730
2012-09-19,3181530,2812323,330533,850142
2012-09-26,3184161,2812238,333904,834979
2012-10-03,3177343,2804149,335248,834992
2012-10-10,3186377,2814793,333766,835005
2012-10-17,3188413,2822886,327496,862304
2012-10-24,3188030,2824606,326058,868069
2012-10-31,3192960,2833123,322996,852039
2012-11-07,3194275,2834959,322788,852063
2012-11-14,3192371,2833575,322622,889020
2012-11-21,3192765,2837423,319401,900583
2012-11-28,3202129,2848876,317018,883539
2012-12-05,3204142,2850334,317675,883646
2012-12-12,3220818,2866875,318293,928801
2012-12-19,3233938,2882762,315201,933391
2012-12-26,3238440,2891366,311053,926558